GJAKE HKMO-HKEL

Flight info

Callsign GJAKE
Flight time 0h 58m
Altitude 40000
Route NERAG1A UTIKU DCT UTEPI DCT APNOM DCT GETOM DCT KIDUM
Aircraft CL60/M-SBDE1E2E3FGHIJ1J4J5J7M3RWXYZ/LB1V1D1

Departure

Time 2026-04-26 13:38
Airport Moi International Airport (HKMO)

Arrival

Time 2026-04-26 14:36
Airport Eldoret International Airport (HKEL)
Time Latitude Longitude Altitude Speed Heading
2026-04-26 13:12 -4.02779 39.60175 206 ft 0 kts 119°
2026-04-26 13:33 -4.02796 39.60177 207 ft 6 kts 206°
2026-04-26 13:34 -4.02778 39.60119 205 ft 12 kts 295°
2026-04-26 13:34 -4.02740 39.60052 202 ft 6 kts 317°
2026-04-26 13:34 -4.02702 39.60064 202 ft 9 kts 30°
2026-04-26 13:34 -4.02652 39.60092 202 ft 14 kts 30°
2026-04-26 13:35 -4.02487 39.60184 200 ft 25 kts 29°
2026-04-26 13:35 -4.02316 39.60280 200 ft 29 kts 29°
2026-04-26 13:35 -4.02126 39.60387 200 ft 32 kts 29°
2026-04-26 13:35 -4.01971 39.60473 201 ft 19 kts 30°
2026-04-26 13:36 -4.01848 39.60542 202 ft 21 kts 30°
2026-04-26 13:36 -4.01725 39.60610 204 ft 20 kts 29°
2026-04-26 13:36 -4.01589 39.60687 206 ft 23 kts 29°
2026-04-26 13:36 -4.01464 39.60737 209 ft 15 kts 359°
2026-04-26 13:37 -4.01365 39.60705 210 ft 13 kts 320°
2026-04-26 13:37 -4.01349 39.60623 211 ft 5 kts 232°
2026-04-26 13:37 -4.01443 39.60570 209 ft 46 kts 209°
2026-04-26 13:37 -4.02064 39.60221 205 ft 150 kts 208°
2026-04-26 13:38 -4.03077 39.59645 907 ft 179 kts 206°
2026-04-26 13:38 -4.04095 39.59032 2091 ft 177 kts 215°
2026-04-26 13:38 -4.04799 39.57875 2596 ft 216 kts 255°
2026-04-26 13:38 -4.04645 39.56315 2998 ft 234 kts 281°
2026-04-26 13:39 -4.03986 39.54761 3422 ft 256 kts 306°
2026-04-26 13:39 -4.02684 39.53396 3853 ft 278 kts 315°
2026-04-26 13:39 -4.01282 39.52031 4563 ft 280 kts 315°
2026-04-26 13:39 -3.99872 39.50647 5344 ft 285 kts 315°
2026-04-26 13:40 -3.98442 39.49244 6125 ft 290 kts 315°
2026-04-26 13:40 -3.96981 39.47809 6910 ft 293 kts 315°
2026-04-26 13:40 -3.95514 39.46366 7692 ft 300 kts 315°
2026-04-26 13:40 -3.93966 39.44843 8466 ft 323 kts 315°
2026-04-26 13:41 -3.92295 39.43198 9233 ft 341 kts 315°
2026-04-26 13:41 -3.90573 39.41502 10006 ft 349 kts 315°
2026-04-26 13:41 -3.88835 39.39789 10781 ft 352 kts 315°
2026-04-26 13:41 -3.87042 39.38023 11580 ft 354 kts 314°
2026-04-26 13:42 -3.85269 39.36276 12370 ft 357 kts 314°
2026-04-26 13:42 -3.83478 39.34510 13150 ft 360 kts 314°
2026-04-26 13:42 -3.81681 39.32738 13928 ft 363 kts 315°
2026-04-26 13:42 -3.79851 39.30933 14728 ft 368 kts 315°
2026-04-26 13:43 -3.78012 39.29119 15504 ft 374 kts 315°
2026-04-26 13:43 -3.76118 39.27251 16294 ft 382 kts 316°
2026-04-26 13:43 -3.74198 39.25357 17082 ft 390 kts 316°
2026-04-26 13:43 -3.72225 39.23411 17874 ft 397 kts 316°
2026-04-26 13:44 -3.70232 39.21446 18655 ft 402 kts 316°
2026-04-26 13:44 -3.68204 39.19452 19442 ft 406 kts 316°
2026-04-26 13:44 -3.66169 39.17456 20225 ft 410 kts 316°
2026-04-26 13:44 -3.64108 39.15435 21011 ft 412 kts 316°
2026-04-26 13:45 -3.62050 39.13416 21794 ft 413 kts 316°
2026-04-26 13:45 -3.59963 39.11369 22599 ft 414 kts 316°
2026-04-26 13:45 -3.57894 39.09339 23358 ft 417 kts 316°
2026-04-26 13:45 -3.55796 39.07282 24028 ft 421 kts 317°
2026-04-26 13:46 -3.53698 39.05224 24643 ft 426 kts 316°
2026-04-26 13:46 -3.51537 39.03105 25268 ft 430 kts 316°
2026-04-26 13:46 -3.49374 39.00984 25862 ft 434 kts 317°
2026-04-26 13:46 -3.47198 38.98850 26424 ft 438 kts 317°
2026-04-26 13:47 -3.45015 38.96710 26975 ft 442 kts 317°
2026-04-26 13:47 -3.42800 38.94538 27529 ft 445 kts 317°
2026-04-26 13:47 -3.40542 38.92324 28061 ft 449 kts 317°
2026-04-26 13:47 -3.38290 38.90116 28523 ft 453 kts 317°
2026-04-26 13:48 -3.36030 38.87901 29005 ft 457 kts 317°
2026-04-26 13:48 -3.33705 38.85623 29481 ft 460 kts 317°
2026-04-26 13:48 -3.31418 38.83381 29894 ft 464 kts 317°
2026-04-26 13:48 -3.29066 38.81098 30308 ft 468 kts 318°
2026-04-26 13:49 -3.26682 38.78789 30708 ft 471 kts 318°
2026-04-26 13:49 -3.24339 38.76507 31078 ft 474 kts 317°
2026-04-26 13:49 -3.21951 38.74158 31449 ft 477 kts 317°
2026-04-26 13:49 -3.19532 38.71779 31938 ft 476 kts 317°
2026-04-26 13:50 -3.17112 38.69400 32461 ft 475 kts 317°
2026-04-26 13:50 -3.14731 38.67061 33053 ft 473 kts 318°
2026-04-26 13:50 -3.12323 38.64696 33665 ft 471 kts 317°
2026-04-26 13:50 -3.09955 38.62370 34263 ft 469 kts 317°
2026-04-26 13:51 -3.07544 38.60004 34871 ft 466 kts 317°
2026-04-26 13:51 -3.05188 38.57692 35410 ft 465 kts 317°
2026-04-26 13:51 -3.02820 38.55370 35903 ft 464 kts 317°
2026-04-26 13:51 -3.00477 38.53072 36334 ft 464 kts 318°
2026-04-26 13:52 -2.98148 38.50789 36687 ft 465 kts 318°
2026-04-26 13:52 -2.95760 38.48449 37051 ft 465 kts 318°
2026-04-26 13:52 -2.93394 38.46130 37457 ft 465 kts 318°
2026-04-26 13:52 -2.91070 38.43852 37838 ft 464 kts 318°
2026-04-26 13:53 -2.88751 38.41581 38154 ft 464 kts 317°
2026-04-26 13:53 -2.86423 38.39300 38486 ft 464 kts 318°
2026-04-26 13:53 -2.84082 38.37007 38818 ft 464 kts 318°
2026-04-26 13:53 -2.81779 38.34750 39159 ft 464 kts 318°
2026-04-26 13:54 -2.79446 38.32466 39553 ft 462 kts 318°
2026-04-26 13:54 -2.77150 38.30218 39791 ft 462 kts 318°
2026-04-26 13:54 -2.74824 38.27940 39943 ft 464 kts 318°
2026-04-26 13:55 -2.68511 38.21762 40022 ft 473 kts 318°
2026-04-26 13:56 -2.60521 38.13942 40029 ft 484 kts 318°
2026-04-26 13:56 -2.55633 38.09159 40042 ft 490 kts 318°
2026-04-26 13:57 -2.50692 38.04325 40050 ft 491 kts 318°
2026-04-26 13:57 -2.45772 37.99511 40044 ft 490 kts 318°
2026-04-26 13:58 -2.40839 37.94685 40068 ft 489 kts 318°
2026-04-26 13:58 -2.35941 37.89894 40083 ft 488 kts 318°
2026-04-26 13:59 -2.31023 37.85084 40090 ft 488 kts 318°
2026-04-26 13:59 -2.26057 37.80229 40091 ft 488 kts 318°
2026-04-26 14:00 -2.16101 37.70494 40097 ft 488 kts 318°
2026-04-26 14:01 -2.11223 37.65725 40104 ft 488 kts 318°
2026-04-26 14:01 -2.06319 37.60932 40115 ft 488 kts 318°
2026-04-26 14:02 -2.01413 37.56136 40116 ft 487 kts 318°
2026-04-26 14:02 -1.96520 37.51355 40126 ft 487 kts 319°
2026-04-26 14:03 -1.91639 37.46585 40150 ft 487 kts 318°
2026-04-26 14:03 -1.86750 37.41808 40163 ft 487 kts 319°
2026-04-26 14:04 -1.82099 37.37265 40191 ft 486 kts 318°
2026-04-26 14:04 -1.77177 37.32455 40192 ft 486 kts 319°
2026-04-26 14:05 -1.73058 37.28432 40223 ft 486 kts 319°
2026-04-26 14:05 -1.67334 37.22841 40219 ft 487 kts 319°
2026-04-26 14:06 -1.62448 37.18068 40225 ft 487 kts 319°
2026-04-26 14:06 -1.57537 37.13272 40222 ft 487 kts 319°
2026-04-26 14:07 -1.52646 37.08495 40216 ft 485 kts 318°
2026-04-26 14:07 -1.47676 37.03642 40199 ft 485 kts 319°
2026-04-26 14:08 -1.43110 36.98572 40197 ft 487 kts 313°
2026-04-26 14:08 -1.38666 36.93394 40212 ft 487 kts 313°
2026-04-26 14:09 -1.34185 36.88177 40216 ft 487 kts 313°
2026-04-26 14:09 -1.29762 36.83029 40223 ft 487 kts 313°
2026-04-26 14:10 -1.25320 36.77863 40229 ft 487 kts 313°
2026-04-26 14:10 -1.20867 36.72683 40235 ft 487 kts 313°
2026-04-26 14:11 -1.14157 36.64882 40262 ft 486 kts 313°
2026-04-26 14:11 -1.09665 36.59661 40263 ft 487 kts 313°
2026-04-26 14:12 -1.05171 36.54438 40267 ft 486 kts 313°
2026-04-26 14:12 -1.00721 36.49266 40274 ft 486 kts 313°
2026-04-26 14:13 -0.94040 36.41503 40287 ft 486 kts 313°
2026-04-26 14:14 -0.89587 36.36329 40288 ft 486 kts 313°
2026-04-26 14:14 -0.85151 36.31175 40293 ft 486 kts 313°
2026-04-26 14:15 -0.80723 36.26029 40302 ft 483 kts 313°
2026-04-26 14:15 -0.76343 36.20938 40321 ft 471 kts 313°
2026-04-26 14:16 -0.72049 36.15947 40338 ft 463 kts 314°
2026-04-26 14:16 -0.67779 36.10989 40332 ft 463 kts 314°
2026-04-26 14:16 -0.65609 36.08470 39829 ft 471 kts 313°
2026-04-26 14:17 -0.63448 36.05961 39207 ft 470 kts 313°
2026-04-26 14:17 -0.61306 36.03471 38579 ft 464 kts 313°
2026-04-26 14:17 -0.59193 36.01016 37882 ft 464 kts 313°
2026-04-26 14:17 -0.57062 35.98543 37143 ft 468 kts 313°
2026-04-26 14:18 -0.54892 35.96023 36408 ft 471 kts 313°
2026-04-26 14:18 -0.52731 35.93514 35673 ft 472 kts 313°
2026-04-26 14:18 -0.50588 35.91025 34947 ft 470 kts 313°
2026-04-26 14:18 -0.48429 35.88517 34215 ft 467 kts 313°
2026-04-26 14:19 -0.46302 35.86045 33489 ft 462 kts 313°
2026-04-26 14:19 -0.44203 35.83607 32780 ft 457 kts 312°
2026-04-26 14:19 -0.42138 35.81208 32093 ft 454 kts 313°
2026-04-26 14:19 -0.40066 35.78801 31371 ft 451 kts 312°
2026-04-26 14:20 -0.38016 35.76421 30645 ft 449 kts 312°
2026-04-26 14:20 -0.35959 35.74031 29910 ft 446 kts 312°
2026-04-26 14:20 -0.33947 35.71695 29238 ft 442 kts 312°
2026-04-26 14:20 -0.31925 35.69346 28609 ft 437 kts 312°
2026-04-26 14:21 -0.29940 35.67041 27989 ft 433 kts 312°
2026-04-26 14:21 -0.27960 35.64741 27352 ft 429 kts 312°
2026-04-26 14:21 -0.26013 35.62480 26720 ft 426 kts 312°
2026-04-26 14:21 -0.24099 35.60257 26095 ft 422 kts 312°
2026-04-26 14:22 -0.22161 35.58006 25465 ft 418 kts 313°
2026-04-26 14:22 -0.20260 35.55799 24833 ft 414 kts 313°
2026-04-26 14:22 -0.18368 35.53601 24204 ft 410 kts 313°
2026-04-26 14:22 -0.16523 35.51458 23633 ft 405 kts 313°
2026-04-26 14:23 -0.14683 35.49320 23218 ft 396 kts 313°
2026-04-26 14:23 -0.12911 35.47260 22815 ft 387 kts 313°
2026-04-26 14:23 -0.11144 35.45208 22404 ft 380 kts 313°
2026-04-26 14:23 -0.09436 35.43225 21989 ft 381 kts 313°
2026-04-26 14:24 -0.07668 35.41173 21484 ft 380 kts 313°
2026-04-26 14:24 -0.05954 35.39182 20974 ft 377 kts 313°
2026-04-26 14:24 -0.04242 35.37195 20459 ft 374 kts 313°
2026-04-26 14:24 -0.02513 35.35186 19936 ft 372 kts 313°
2026-04-26 14:25 -0.00820 35.33221 19419 ft 369 kts 313°
2026-04-26 14:25 0.00856 35.31274 18909 ft 367 kts 313°
2026-04-26 14:25 0.02521 35.29341 18400 ft 365 kts 313°
2026-04-26 14:25 0.04201 35.27391 17889 ft 362 kts 313°
2026-04-26 14:26 0.05851 35.25474 17381 ft 360 kts 313°
2026-04-26 14:26 0.07488 35.23573 16887 ft 358 kts 313°
2026-04-26 14:26 0.09111 35.21689 16386 ft 355 kts 313°
2026-04-26 14:26 0.10745 35.19791 15878 ft 353 kts 313°
2026-04-26 14:27 0.12366 35.17909 15375 ft 350 kts 313°
2026-04-26 14:27 0.13953 35.16066 14877 ft 347 kts 313°
2026-04-26 14:27 0.15513 35.14252 14339 ft 336 kts 313°
2026-04-26 14:27 0.17030 35.12489 14016 ft 319 kts 313°
2026-04-26 14:28 0.18444 35.10844 13757 ft 304 kts 313°
2026-04-26 14:28 0.19826 35.09237 13492 ft 292 kts 313°
2026-04-26 14:28 0.21128 35.07724 13272 ft 284 kts 313°
2026-04-26 14:28 0.22432 35.06210 13010 ft 280 kts 313°
2026-04-26 14:29 0.23703 35.04742 12740 ft 277 kts 315°
2026-04-26 14:29 0.25160 35.03466 12371 ft 275 kts 325°
2026-04-26 14:29 0.26697 35.02321 11935 ft 276 kts 326°
2026-04-26 14:29 0.28242 35.01182 11507 ft 271 kts 326°
2026-04-26 14:30 0.29730 35.00085 11160 ft 254 kts 326°
2026-04-26 14:30 0.31126 34.99054 10857 ft 236 kts 327°
2026-04-26 14:30 0.32554 34.98431 10606 ft 219 kts 357°
2026-04-26 14:30 0.34003 34.98772 10391 ft 213 kts 34°
2026-04-26 14:31 0.35010 34.99859 10224 ft 213 kts 56°
2026-04-26 14:31 0.35657 35.01184 10053 ft 208 kts 70°
2026-04-26 14:31 0.36065 35.02571 9889 ft 204 kts 74°
2026-04-26 14:31 0.36406 35.03966 9721 ft 203 kts 76°
2026-04-26 14:32 0.36706 35.05353 9586 ft 201 kts 77°
2026-04-26 14:32 0.36992 35.06732 9460 ft 201 kts 77°
2026-04-26 14:32 0.37271 35.08104 9337 ft 197 kts 77°
2026-04-26 14:32 0.37533 35.09408 9224 ft 183 kts 77°
2026-04-26 14:33 0.37776 35.10620 8988 ft 168 kts 77°
2026-04-26 14:33 0.38000 35.11736 8783 ft 164 kts 77°
2026-04-26 14:33 0.38231 35.12879 8575 ft 164 kts 76°
2026-04-26 14:33 0.38461 35.14017 8395 ft 167 kts 76°
2026-04-26 14:34 0.38691 35.15161 8173 ft 167 kts 77°
2026-04-26 14:34 0.38919 35.16301 7967 ft 160 kts 77°
2026-04-26 14:34 0.39128 35.17352 7777 ft 149 kts 76°
2026-04-26 14:34 0.39330 35.18360 7585 ft 144 kts 76°
2026-04-26 14:35 0.39529 35.19343 7409 ft 142 kts 76°
2026-04-26 14:35 0.39725 35.20310 7232 ft 140 kts 77°
2026-04-26 14:35 0.39917 35.21271 7052 ft 139 kts 76°
2026-04-26 14:35 0.40108 35.22216 6892 ft 139 kts 75°
2026-04-26 14:36 0.40288 35.23103 6881 ft 114 kts 78°
2026-04-26 14:36 0.40418 35.23758 6903 ft 60 kts 79°
2026-04-26 14:36 0.40465 35.24048 6916 ft 5 kts 92°
2026-04-26 14:36 0.40473 35.24023 6915 ft 11 kts 257°
2026-04-26 14:37 0.40448 35.23907 6909 ft 22 kts 259°
2026-04-26 14:37 0.40413 35.23726 6901 ft 30 kts 258°
2026-04-26 14:37 0.40366 35.23499 6893 ft 35 kts 258°
2026-04-26 14:37 0.40315 35.23242 6884 ft 39 kts 258°
2026-04-26 14:38 0.40260 35.22965 6877 ft 41 kts 258°
2026-04-26 14:38 0.40240 35.22744 6871 ft 23 kts 307°
2026-04-26 14:38 0.40340 35.22607 6864 ft 18 kts 304°
2026-04-26 14:38 0.40369 35.22564 6861 ft 0 kts 304°
2026-04-26 14:39 0.40389 35.22531 6860 ft 9 kts 289°
2026-04-26 14:39 0.40378 35.22444 6858 ft 15 kts 259°
2026-04-26 14:39 0.40357 35.22333 6857 ft 11 kts 258°
2026-04-26 14:39 0.40380 35.22308 6856 ft 4 kts 49°
2026-04-26 14:40 0.40388 35.22331 6857 ft 0 kts 78°